Lid_Strength_Index
4 4 3 2 2 2 2 2 2 2 2 2 4 5 6 7 7 7 8 8 9 10 11 12 12 12 13 14 12 12 13 13 12 12 13 12 13 12 11 11 11 11 11
6 5 4 3 3 3 2 2 2 1 2 2 3 5 6 7 8 8 9 10 10 10 11 12 13 13 13 13 12 13 12 13 12 13 12 13 13 12 13 12 12 12 12
6 5 5 4 3 3 3 2 2 2 2 3 5 6 7 8 10 9 10 11 11 11 12 13 13 13 12 12 13 12 11 13 13 13 11 14 12 13 13 13 12 12 12
6 5 5 4 4 3 2 2 2 2 2 4 5 7 8 9 9 9 10 11 11 12 12 13 13 13 11 13 14 12 12 11 13 14 13 13 12 12 14 13 13 13 13
7 6 5 4 3 3 3 2 2 2 3 4 5 6 7 7 8 9 10 11 12 12 13 13 13 13 12 12 14 12 13 11 13 12 14 14 15 15 11 13 13 13 13
7 9 4 4 4 3 2 2 2 3 3 4 5 5 6 7 9 9 10 11 12 12 13 13 14 13 13 13 12 12 11 13 12 12 12 13 12 14 13 13 14 13 14
9 10 12 10 4 4 3 3 2 3 3 4 5 5 6 7 8 9 10 11 12 12 13 13 14 13 13 13 13 12 12 12 12 12 14 14 14 13 13 13 15 13 14
16 15 14 15 14 11 4 3 3 3 3 4 5 5 6 6 6 7 8 9 11 12 11 13 13 13 13 13 13 13 12 12 12 12 14 13 14 13 13 12 13 14 15
19 18 16 16 16 14 12 10 3 3 3 4 5 6 6 7 7 7 8 8 9 10 11 12 12 13 13 13 13 13 13 12 12 13 13 13 14 14 13 13 12 9 12
20 19 18 17 16 15 14 11 9 3 3 4 4 5 6 6 7 7 9 9 9 9 11 12 12 13 13 14 14 14 12 12 13 13 13 13 14 14 13 14 13 13 11
21 20 20 18 17 16 16 14 12 10 5 3 4 4 5 6 7 7 8 8 9 10 11 11 12 13 13 14 14 14 13 13 13 12 13 13 14 14 14 15 14 15 13
21 21 21 20 19 18 17 16 15 14 12 10 4 4 4 5 7 7 8 8 9 10 10 10 11 12 13 14 14 14 14 12 13 13 13 13 14 14 15 15 15 14 14
21 21 21 21 21 19 19 17 16 15 14 12 9 4 5 5 7 7 8 9 10 10 10 11 12 12 13 13 13 13 13 13 12 12 13 12 14 15 15 15 15 15 15
22 22 22 22 21 20 19 19 18 16 16 13 10 7 5 4 5 7 8 9 9 10 10 11 11 12 12 13 13 14 13 13 12 12 13 12 13 14 14 15 14 15 15
22 23 23 22 22 21 20 19 18 18 16 15 12 11 8 5 5 8 9 9 9 9 10 11 11 11 12 12 12 13 13 13 13 13 13 13 13 12 12 14 15 15 15
23 23 22 22 22 22 21 20 19 18 17 15 14 12 11 6 7 8 8 9 10 10 10 11 11 12 12 11 10 12 13 14 14 14 13 13 13 12 11 12 13 14 14
23 23 23 22 22 22 21 21 20 18 17 16 15 14 13 11 7 8 8 8 9 10 11 11 11 12 11 10 10 10 12 13 14 14 14 15 13 12 12 11 12 12 12
24 23 23 22 22 21 21 20 20 19 18 17 17 16 14 13 12 7 7 8 8 10 10 11 11 11 12 10 10 10 13 13 14 14 14 15 15 14 13 13 13 13 13
23 22 22 22 22 21 21 21 20 19 18 18 18 17 15 14 13 11 8 8 9 10 10 11 11 12 12 10 10 10 13 14 14 14 14 14 14 13 12 13 13 13 13
22 22 21 21 22 21 21 21 21 20 20 19 18 17 16 15 14 12 10 9 10 11 12 12 11 11 11 10 9 10 13 14 15 15 14 12 13 12 11 13 14 15 15
21 21 21 21 20 20 20 20 20 20 19 19 18 17 17 16 14 13 11 10 11 12 13 13 13 12 12 11 9 9 13 14 14 15 15 13 11 12 11 12 14 14 14
22 22 22 21 20 19 19 20 20 19 19 18 18 18 17 16 14 14 13 12 12 12 13 14 15 14 13 11 10 9 11 12 14 15 14 14 12 11 11 11 13 12 14
22 21 21 21 20 19 19 21 20 19 19 19 19 18 17 16 15 15 14 14 13 13 14 14 14 15 14 12 10 9 10 11 14 15 14 13 12 12 12 12 13 13 16
21 20 20 21 21 20 19 19 19 19 20 20 19 18 18 16 15 15 14 14 14 14 15 14 14 14 15 14 12 11 10 12 14 14 14 13 13 12 13 14 14 17 17
21 20 21 21 21 20 20 20 19 20 20 20 19 19 18 18 16 15 15 14 14 13 14 14 14 15 15 14 12 11 12 13 14 15 15 15 14 15 17 18 18 17 18
22 22 21 21 21 20 20 20 19 20 21 20 18 19 18 19 17 15 15 13 13 12 11 12 13 13 12 12 11 10 11 12 12 15 15 15 16 18 19 19 19 19 19